Location: Glens Falls
(43.3090°N, 73.6440°W)
Time: 11:45:18
(UTC-04:00)

YAOGAN 1 - Pass Details

Date: 24 February 2018
Orbit: 619 x 621 km, 98.0° (Epoch: 23 June)

Event Time Altitude Azimuth Distance (km) Brightness Sun altitude
Rises 18:26:53 0° 187° (S) 2,882 6.1 -9.8°
Reaches altitude 10° 18:29:12 10° 196° (SSW) 1,981 5.4 -10.2°
Maximum altitude 18:33:10 35° 263° (W) 1,010 4.5 -10.9°
Drops below altitude 10° 18:37:08 10° 329° (NNW) 1,995 5.6 -11.6°
Sets 18:39:30 0° 339° (NNW) 2,905 6.3 -12.1°
